Location: Burzi?i
(45.0869°N, 16.0577°E)
Time: 12:18:10
(UTC+00:00)

ERS-2 - Pass Details

Date: 29 October 2020
Orbit: 493 x 497 km, 98.6° (Epoch: 27 November)

Event Time Altitude Azimuth Distance (km) Brightness Sun altitude
Rises 17:11:36 0° 4° (N) 2,587 5.7 -15.3°
Reaches altitude 10° 17:13:50 10° 354° (N) 1,700 4.8 -15.7°
Maximum altitude 17:17:04 31° 292° (WNW) 898 4.0 -16.3°
Drops below altitude 10° 17:20:18 10° 229° (SW) 1,689 5.6 -16.9°
Sets 17:22:30 0° 219° (SW) 2,567 6.4 -17.3°
